791  
ASUS44 KSHV 282010  
RWRSHV  
 
THE FOUR STATE AREA WEATHER ROUNDUP  
NATIONAL WEATHER SERVICE SHREVEPORT LA  
200 PM CST MON NOV 28 2022  
 
NOTE: "FAIR" INDICATES FEW OR NO CLOUDS BELOW 12000 FEET  
WITH NO SIGNIFICANT WEATHER AND/OR S TO VISIBILITY
.  
 
!LAZ001-LAZ014-TXZ097-282100  
SHREVEPORT...MONROE...TEXARKANA RADIOS  
 
CITY SKY/WX TMP DP RH WIND PRES REMARKS
 
SHREVEPORT MOSUNNY 70 48 46 S7 29.94F  
MONROE SUNNY 68 47 46 S6 29.97F  
NATCHITOCHES SUNNY 73 49 42 CALM 29.96F  
TEXARKANA SUNNY 63 41 44 SW8 29.93F  
ATLANTA FAIR 65 46 50 SW6 29.92F  

 
 
!LAZ001-LAZ014-TXZ097-282100  
OTHER LOCATIONS...  
 
CITY SKY/WX TMP DP RH WIND PRES REMARKS
 
DOWNTOWN SHV SUNNY 67 48 50 S8 29.95F  
BOSSIER CITY SUNNY 67 47 48 SW6 29.94F  
RUSTON SUNNY 67 48 49 S8 29.96F  
LITTLE ROCK MOSUNNY 63 43 48 S8 29.94F  
EL DORADO SUNNY 65 45 48 SW8 29.95F  
JACKSON SUNNY 70 45 40 CALM 29.98F  
NEW ORLEANS MOSUNNY 73 49 42 CALM 29.98F  
HOUSTON SUNNY 73 52 47 SE9 29.93F  
LUFKIN SUNNY 71 50 47 S8 29.94F  
TYLER SUNNY 68 46 45 S12 29.91F  
DAL FT WORTH MOSUNNY 68 47 46 S16 29.82F  

 
 
!TXZ136-TXZ165-282100  
TYLER...LUFKIN RADIOS  
 
CITY SKY/WX TMP DP RH WIND PRES REMARKS
 
TYLER SUNNY 68 46 45 S12 29.91F  
GILMER SUNNY 66 45 45 SE5 29.91F  
LONGVIEW SUNNY 67 46 47 S8 29.92F  
LUFKIN SUNNY 71 50 47 S8 29.94F  

 
 
!TXZ136-TXZ165-282100  
OTHER LOCATIONS...  
 
CITY SKY/WX TMP DP RH WIND PRES REMARKS
 
NACOGDOCHES SUNNY 69 48 47 SE8 29.94F  
BEAUMONT SUNNY 73 53 49 VRB5 29.94F  
HOUSTON SUNNY 73 52 47 SE9 29.93F  
COLLEGE STN SUNNY 73 50 44 S7 29.91F  
AUSTIN SUNNY 74 51 44 S10G17 29.88F  
DAL FT WORTH MOSUNNY 68 47 46 S16 29.82F  
TEXARKANA SUNNY 63 41 44 SW8 29.93F  
SHREVEPORT MOSUNNY 70 48 46 S7 29.94F  
FORT POLK SUNNY 71 49 46 S5 29.94F  
LAKE CHARLES SUNNY 72 51 47 SE6 29.95F  

 
 
 
CLICK HERE TO GO TO PREVIOUS BULLETINS.

The Nexlab LA Page
The Nexlab TX Page
The Nexlab AR Page
The Nexlab OK Page Main Text Page